Vertical_Velocity
4 6 -5 -4 2 -6 -2 3 -1 4 20 8 5 -2 -7 -5 -5 -9 3 -4 -7 -5 2 2 1 -0 1 1 3 3 -0 -1 1 -1 -0 -5 4 2 -1 1 -2 -4 4 -4
2 -10 1 3 17 11 8 -2 -9 -8 -6 1 -8 -10 -4 -7 2 -2 1 -4 -3 -1 -7 -4 -2 -2 4 3 5 8 9 -3 1 5 1 6 3 4 -5 1 -1 -3 1 2
-3 0 0 2 2 -2 -2 -3 -4 1 -8 -3 -4 -20 -5 -2 -3 -1 0 2 -2 -2 1 1 2 2 1 2 3 7 5 6 -2 3 11 -0 3 5 -4 -3 0 5 4 7
-1 7 1 0 -2 3 0 10 4 4 -1 -0 4 -14 -10 -5 0 3 -5 0 2 4 4 3 2 2 7 5 4 8 9 5 4 -0 -3 0 1 6 2 7 -2 2 6 2
-3 1 2 -2 -1 3 -4 -0 -3 -1 1 -1 -11 5 -12 -5 -1 -3 -6 -0 -5 -2 -3 1 3 6 8 -1 -0 -0 7 6 9 3 -7 3 5 -0 7 3 -1 1 4 1
7 -1 -1 -1 0 -0 -3 -3 -10 -4 2 5 -12 0 -10 -1 -4 -3 -4 10 5 2 -11 -16 -11 -4 2 5 6 2 2 4 5 5 -7 4 8 2 6 -1 1 2 2 1
-3 0 -2 -1 3 -4 3 -3 0 3 4 -9 11 11 -20 -13 2 -3 -1 -7 6 6 -0 3 -1 -5 -7 -6 4 7 5 2 4 5 -2 5 -2 12 2 1 5 2 0 4
-4 2 -1 1 -6 -2 -3 -4 1 -0 0 -1 -2 -5 -22 4 3 6 -7 -5 -10 4 1 -8 -4 -2 1 -0 -2 1 8 4 2 -1 1 6 -3 7 4 6 4 2 2 -0
-2 1 2 -3 -0 6 3 -8 6 1 -2 6 -7 -5 -6 -13 -9 -13 -0 1 6 5 -11 -10 -0 -2 -3 1 -0 -1 3 0 -0 -1 7 -5 3 -2 3 8 4 3 -0 2
5 0 5 2 1 -4 -0 3 2 1 -1 -1 -3 -1 -13 9 2 11 5 4 6 1 -4 -5 -8 -3 0 1 4 2 2 2 7 3 2 4 1 2 4 2 3 -0 3 0
1 3 1 -2 -6 -3 0 -1 -2 4 -0 1 1 -6 -2 -4 0 -1 -1 -0 -0 -6 5 0 -1 4 -6 1 2 4 0 5 4 5 -3 -3 1 1 10 4 1 3 4 2
-2 -1 -3 -9 1 0 12 -5 -0 0 -2 -2 6 -44 -14 -6 -5 -6 -2 2 -10 -1 -38 -1 -5 -0 -7 -1 1 6 1 3 -2 1 2 4 3 7 6 -0 5 4 7 -2
-7 -2 -1 1 4 2 -2 2 6 6 10 -15 14 -28 -7 -1 -7 7 -6 -4 -1 12 -9 2 -12 -6 -1 -2 4 6 1 -1 1 5 4 6 5 4 -2 4 -3 2 1 -2
1 -1 -2 -3 1 6 -1 -0 2 14 8 -10 -22 -22 0 -8 -1 4 -3 -9 -2 4 18 1 -17 -2 2 -2 13 15 -10 -3 1 7 5 5 4 1 2 4 -5 5 -4 17
0 -4 2 -3 -1 5 0 -2 6 6 -11 19 -24 -5 -2 0 2 -3 1 11 5 6 7 -10 -6 2 1 -5 8 4 -6 -4 5 7 6 7 -1 2 -3 -4 8 -6 9 7
-1 -4 -0 -10 -3 -8 -3 -0 -1 7 3 4 3 -20 14 -0 12 29 -6 -3 -1 -1 -10 -0 -8 -2 3 -1 -1 7 1 2 7 7 5 3 1 -3 2 7 -1 19 9 4
0 -2 -4 -7 2 3 -3 -3 -0 -4 3 6 0 1 3 4 1 6 -9 -7 -1 4 2 -11 -1 1 -3 -2 8 13 2 2 4 5 6 -2 -4 5 9 2 16 5 6 1
-4 -1 1 -7 -2 -1 1 -9 -3 -1 -0 3 -0 0 4 3 2 -2 2 2 -9 -0 3 1 -2 -0 2 4 8 4 3 3 3 -1 5 2 3 3 11 19 2 -12 4 -3
4 4 -2 1 -0 -14 -1 2 6 6 -3 -1 2 1 4 5 -1 -2 1 1 -1 0 0 -8 -2 3 2 1 1 5 1 0 3 8 8 10 25 5 5 -14 7 7 -1 -1
0 -1 1 2 1 -0 7 -3 0 -1 -2 7 0 3 -1 -2 -3 -1 2 -1 -0 2 2 3 4 2 1 4 3 -0 6 9 8 24 13 11 9 2 -1 -2 -2 3 1 4
1 8 -3 0 -1 -11 5 3 0 0 -5 1 3 -1 -0 -4 -4 0 1 1 1 0 0 3 3 5 6 8 3 3 7 19 12 5 1 0 -14 -1 -1 0 4 4 -1 -5
-4 -4 -3 1 1 -9 6 4 7 1 4 1 2 0 2 2 1 -1 1 3 -0 2 6 6 12 11 12 18 11 0 -1 9 1 -8 -6 -5 -7 -11 4 9 2 -6 -2 1
0 -8 -2 -3 -2 5 7 -4 1 0 1 2 0 1 -0 -2 1 -3 1 1 6 5 -1 -8 1 -2 -9 -11 -3 -9 -13 5 0 -4 -1 0 -7 5 6 -0 -1 2 2 -0
-0 5 -4 2 5 5 1 2 -0 1 2 3 -1 -1 3 0 -1 -1 -2 -1 -1 2 4 6 7 7 4 1 1 -6 -6 -3 4 1 -1 3 8 6 2 1 -1 -1 -2 -2
5 2 1 -3 1 -0 -3 0 1 0 -1 2 0 -2 1 1 2 1 2 0 -1 -2 0 1 2 3 3 2 2 3 4 2 2 3 5 3 1 -1 -2 -1 -1 -1 -2 -0
2 -4 -1 -2 5 -0 -2 1 -1 -1 -1 1 -0 -1 -1 2 -0 -0 -2 -0 1 3 2 2 1 1 1 -0 2 1 0 1 1 1 0 -0 -1 -0 -0 -0 -1 -1 -0 -1
Height
3050 3051 3051 3056 3058 3061 3061 3064 3065 3065 3067 3064 3060 3057 3057 3057 3055 3055 3055 3056 3059 3062 3066 3067 3069 3071 3075 3079 3084 3086 3088 3090 3094 3097 3099 3101 3105 3105 3107 3110 3111 3113 3116 3116
3048 3046 3052 3056 3058 3059 3060 3061 3062 3062 3063 3059 3054 3044 3046 3047 3044 3046 3047 3047 3049 3052 3055 3059 3061 3062 3065 3067 3073 3077 3079 3079 3085 3090 3093 3096 3096 3100 3101 3104 3105 3107 3109 3110
3044 3048 3049 3052 3054 3055 3056 3058 3060 3061 3058 3056 3051 3035 3037 3036 3036 3038 3039 3039 3040 3042 3044 3047 3050 3052 3054 3057 3062 3067 3071 3073 3074 3082 3087 3085 3088 3092 3095 3098 3100 3102 3104 3106
3043 3045 3046 3048 3050 3053 3055 3056 3056 3058 3058 3055 3052 3041 3030 3034 3034 3033 3032 3034 3034 3035 3036 3037 3038 3041 3044 3046 3050 3056 3061 3065 3068 3069 3074 3078 3081 3086 3090 3093 3095 3096 3098 3100
3041 3042 3043 3045 3047 3051 3052 3051 3053 3055 3055 3053 3047 3049 3016 3024 3023 3026 3028 3029 3030 3031 3031 3030 3031 3032 3035 3038 3041 3044 3050 3054 3058 3060 3063 3068 3074 3078 3084 3086 3087 3089 3092 3093
3039 3039 3040 3043 3044 3047 3048 3050 3051 3052 3053 3049 3037 3040 3009 3019 3021 3022 3022 3024 3025 3025 3024 3024 3024 3025 3026 3028 3031 3033 3038 3043 3047 3050 3053 3057 3066 3070 3076 3079 3081 3083 3085 3087
3036 3036 3037 3040 3043 3044 3048 3049 3051 3053 3050 3042 3033 3033 3017 3018 3019 3018 3017 3019 3021 3020 3018 3018 3017 3018 3019 3019 3022 3026 3028 3032 3038 3040 3043 3048 3058 3062 3069 3073 3075 3076 3078 3080
3032 3035 3033 3035 3038 3043 3044 3047 3048 3046 3041 3033 3031 3020 3012 3013 3013 3011 3012 3012 3014 3013 3010 3009 3007 3008 3011 3011 3012 3016 3019 3022 3027 3031 3035 3042 3044 3055 3062 3065 3068 3070 3071 3072
3030 3032 3031 3033 3035 3040 3042 3043 3046 3045 3040 3034 3022 3012 3009 3007 3008 3008 3007 3005 3003 3005 3003 3002 3001 3002 3002 3002 3004 3006 3009 3013 3018 3022 3030 3032 3036 3047 3054 3058 3060 3062 3064 3066
3029 3032 3032 3033 3035 3037 3039 3041 3044 3044 3043 3031 3010 3008 3004 3005 3004 3003 3001 2999 2998 2996 2996 2994 2996 2997 2996 2995 2995 2997 3000 3005 3010 3015 3021 3021 3033 3042 3047 3050 3053 3056 3058 3060
3026 3029 3032 3031 3030 3031 3034 3036 3038 3038 3037 3030 3016 3004 3000 2998 2999 2999 2997 2996 2993 2991 2991 2990 2991 2992 2990 2989 2988 2989 2994 2997 3000 3006 3008 3017 3028 3035 3041 3044 3046 3049 3052 3055
3025 3027 3027 3026 3028 3029 3031 3030 3033 3035 3029 3025 3016 2993 2992 2993 2994 2995 2993 2989 2988 2985 2987 2983 2982 2984 2985 2984 2982 2983 2987 2990 2993 2996 3003 3017 3023 3030 3034 3037 3041 3044 3047 3049
3023 3025 3025 3024 3027 3028 3027 3027 3029 3027 3025 3017 3016 2991 2988 2989 2988 2985 2983 2983 2982 2982 2980 2976 2974 2979 2980 2978 2977 2978 2981 2984 2986 2994 3004 3012 3019 3024 3028 3031 3035 3039 3042 3044
3020 3021 3020 3020 3021 3024 3023 3023 3024 3023 3017 3007 2995 2978 2980 2981 2976 2973 2973 2972 2974 2975 2976 2970 2969 2972 2974 2973 2973 2974 2974 2979 2985 2994 3001 3008 3014 3019 3023 3027 3029 3034 3036 3037
3018 3016 3017 3015 3015 3016 3015 3014 3013 3012 3007 3003 2987 2985 2974 2972 2967 2963 2958 2963 2966 2968 2968 2964 2964 2965 2968 2967 2968 2969 2972 2978 2985 2992 2998 3004 3010 3015 3019 3022 3026 3029 3030 3032
3015 3014 3013 3009 3009 3009 3006 3007 3006 3004 3000 2994 2989 2978 2973 2964 2960 2957 2954 2954 2957 2958 2960 2958 2957 2960 2962 2962 2964 2967 2972 2977 2983 2989 2995 3001 3006 3011 3015 3019 3022 3023 3020 3026
3013 3014 3014 3009 3007 3005 3004 3003 3001 2999 2995 2991 2984 2976 2965 2958 2953 2949 2946 2947 2949 2952 2953 2952 2953 2954 2956 2958 2961 2966 2971 2976 2982 2987 2993 2998 3001 3006 3011 3013 3015 3016 3017 3020
3011 3013 3014 3008 3004 3004 3001 3000 2998 2995 2992 2988 2981 2973 2965 2957 2951 2946 2941 2938 2938 2942 2947 2948 2947 2950 2952 2955 2959 2964 2970 2976 2982 2987 2992 2996 2999 3003 3003 3005 3011 3012 3015 3018
3009 3011 3012 3010 3007 3002 2999 2999 2997 2992 2989 2985 2979 2974 2966 2958 2951 2946 2941 2937 2935 2936 2939 2941 2945 2947 2949 2953 2958 2964 2970 2976 2982 2987 2991 2993 2994 2996 2998 3004 3007 3011 3013 3014
3006 3009 3012 3010 3009 3003 2997 2996 2994 2989 2987 2985 2979 2974 2969 2962 2955 2949 2944 2941 2939 2938 2940 2942 2944 2946 2951 2956 2962 2968 2972 2977 2982 2984 2988 2988 2994 2999 3000 3003 3008 3010 3009 3009
3005 3006 3007 3008 3008 3000 2996 2995 2993 2991 2992 2984 2980 2975 2972 2967 2962 2957 2951 2947 2944 2943 2944 2944 2946 2950 2955 2961 2965 2969 2974 2978 2981 2985 2988 2991 2996 2997 3002 3003 3005 3006 3006 3004
3001 3002 3003 3004 3006 3000 2995 2995 2995 2991 2987 2983 2979 2976 2973 2970 2966 2963 2960 2957 2953 2950 2951 2953 2954 2956 2960 2962 2967 2969 2972 2977 2984 2988 2989 2990 2995 3001 3000 3002 3002 3000 2999 2998
3000 2998 2998 2999 2995 2995 2995 2993 2991 2988 2984 2981 2977 2977 2975 2973 2971 2969 2966 2965 2962 2961 2960 2955 2955 2959 2957 2963 2971 2973 2977 2980 2986 2990 2992 2995 2995 2996 2998 2997 2996 2996 2994 2993
2996 2996 2995 2996 2994 2994 2992 2992 2989 2986 2983 2980 2978 2977 2976 2976 2975 2973 2972 2971 2969 2967 2966 2966 2967 2969 2970 2973 2976 2980 2983 2986 2988 2988 2989 2991 2994 2995 2995 2994 2993 2992 2990 2988
2993 2992 2992 2991 2991 2991 2990 2989 2987 2985 2982 2980 2978 2978 2978 2978 2977 2977 2976 2975 2975 2974 2974 2973 2974 2975 2976 2977 2979 2982 2984 2986 2988 2990 2992 2993 2994 2994 2993 2992 2990 2988 2985 2982
2988 2988 2989 2989 2989 2988 2987 2986 2985 2983 2982 2980 2979 2978 2978 2978 2978 2977 2977 2978 2978 2978 2978 2978 2979 2980 2981 2982 2984 2985 2987 2988 2990 2991 2992 2992 2992 2991 2989 2988 2986 2983 2980 2976